Hourly Data

Hourly Data Report for December 08, 2008

All times are specified in Local Standard Time (LST). Add 1 hour to adjust for Daylight Saving Time where and when it is observed.

Metadata including Station Name, Province, Latitude, Longitude, Elevation, Climate ID, WMO ID, TC ID
MONTREAL/PIERRE ELLIOTT TRUDEAU INTL
QUEBEC
Latitude: 45°28'04.000" N Longitude: 73°44'30.000" W Elevation: 32.10 m
Climate ID: 702S006 WMO ID: 71183 TC ID: WTQ
Hourly Data Report for December 8, 2008
Temp Definition
°C

Dew Point Temp Definition
°C

Rel Hum Definition
%

Wind Dir Definition
10's deg
Wind Spd Definition
km/h

Visibility Definition
km

Stn Press Definition
kPa

Hmdx Definition

Wind Chill Definition

Weather Definition

TIME
00:00 -17.3 -22.7 63 29 30 101.48 -29 LegendNANA
01:00 -18.0 -23.6 61 29 32 101.63 -30 LegendNANA
02:00 -18.6 -24.1 62 30 26 101.77 -30 LegendNANA
03:00 -18.9 -24.4 62 29 28 101.91 -31 LegendNANA
04:00 -19.5 -24.6 64 30 20 101.99 -30 LegendNANA
05:00 -19.8 -25.0 63 29 24 102.08 -31 LegendNANA
06:00 -19.9 -25.0 64 29 19 102.15 -30 LegendNANA
07:00 -19.8 -24.8 64 28 19 102.23 -30 LegendNANA
08:00 -19.4 -24.2 66 29 17 102.33 -29 LegendNANA
09:00 -18.9 -23.6 66 25 19 102.43 -29 LegendNANA
10:00 -17.8 -23.0 64 26 19 102.48 -27 LegendNANA
11:00 -17.0 -22.7 61 26 19 102.49 -26 LegendNANA
12:00 -15.5 -22.0 57 26 19 102.45 -25 LegendNANA
13:00 -14.5 -21.3 56 28 20 102.45 -24 LegendNANA
14:00 -13.9 -21.3 54 27 19 102.51 -23 LegendNANA
15:00 -13.7 -22.1 49 27 17 102.52 -22 LegendNANA
16:00 -14.0 -22.3 49 25 11 102.56 -20 LegendNANA
17:00 -14.7 -22.0 54 27 9 102.62 -20 LegendNANA
18:00 -14.7 -21.7 55 26 7 102.64 -19 LegendNANA
19:00 -15.4 -20.7 64 33 6 102.63 -20 LegendNANA
20:00 -14.9 -20.6 62 1 4 102.61 -18 LegendNANA
21:00 -15.5 -19.7 70 35 4 102.66 -18 LegendNANA
22:00 -14.8 -18.7 72 11 2 102.63 -16 LegendNANA
23:00 -13.8 -19.7 61 10 7 102.61 -18 LegendNANA

Notes on Data Quality.

Legend
  • M = Missing
  • E = Estimated
  • NA = Not Available
  • ‡ = Partner data that is not subject to review by the National Climate Archives